OpenBCM V1.08-5-g2f4a (Linux)

Packet Radio Mailbox

IZ3LSV

[San Dona' di P. JN]

 Login: GUEST





  
LU9DCE > KEPS     12.03.17 17:42l 186 Lines 9246 Bytes #999 (0) @ WW
BID : 3677_LU9DCE
Read: GUEST
Subj: SAT TLE OF mar 2017
Path: IZ3LSV<IW8PGT<CX2SA<LU4ECL<LU9DCE
Sent: 170312/1501Z @:LU9DCE.TOR.BA.ARG.SOAM #:3677 [TORTUGUITAS] FBB7.0.8-beta2
From: LU9DCE@LU9DCE.TOR.BA.ARG.SOAM
To  : KEPS@ALL

OSCAR 3
1 01293U 65016F   17070.78552797 -.00000017  00000-0  22664-4 0  9991
2 01293  70.0749 180.0999 0017650 349.2320  10.8411 14.06149072656659
OSCAR 5
1 04321U 70008B   17070.11589653 -.00000041  00000-0  25376-4 0  9991
2 04321 101.7591 138.2625 0027608   0.0913  14.6075 12.52169320154216
OSCAR 6
1  6236U 72082B   17069.90172432 -.00000048 +00000-0 -24367-4 0  9997
2  6236 101.6975 036.5278 0004257 145.3566 276.6966 12.53135418030915
OSCAR 7
1 07530U 74089B   17070.48985921 -.00000044  00000-0  99655-6 0  9993
2 07530 101.6192  41.1473 0012152 150.2062 322.0977 12.53625781936619
OSCAR 8
1 10703U 78026B   17070.18077615 -.00000077  00000-0 -23333-4 0  9998
2 10703  98.8736  35.7563 0005746 236.7137 191.8172 13.99214014990881
OSCAR 10
1 14129U 83058B   17069.62299889  .00000074  00000-0  00000+0 0  9997
2 14129  26.9171  50.1169 6022592 279.1504 251.6852  2.05866425225793
OSCAR 11 (UoSAT 2)
1 14781U 84021B   17071.13498775  .00000092  00000-0  17604-4 0  9999
2 14781  97.7109 120.3576 0009266 149.6113 210.5640 14.82867181775966
OSCAR 16 (PACSAT)
1 20439U 90005D   17070.53998333  .00000001  00000-0  16537-4 0  9997
2 20439  98.6015  10.5465 0011995  90.3759 334.9658 14.32670423417426
OSCAR 17 (DOVE)
1 20440U 90005E   17070.43387153  .00000004  00000-0  17320-4 0  9994
2 20440  98.5817   9.6313 0012011  77.3648  33.4108 14.33064932417648
OSCAR 18 (WEBERSAT)
1 20441U 90005F   17070.43742730  .00000004  00000-0  17570-4 0  9998
2 20441  98.5845   8.9177 0012654  85.5683  27.0812 14.32718219417490
OSCAR 19 (LUSAT)
1 20442U 90005G   17070.38125119 -.00000008  00000-0  13148-4 0  9991
2 20442  98.5689   7.9278 0012943  77.7291 282.5341 14.32851289417611
JAS 1B (FUJI 2)
1 20480U 90013C   17070.87942943 -.00000039  00000-0 -84068-5 0  9993
2 20480  99.0357 222.3370 0539414 251.3899 102.7909 12.83415104269230
COSMOS 2123
1 21089U 91007A   17071.18248854  .00000048  00000-0  34270-4 0  9995
2 21089  82.9257 329.7956 0029783  20.6002  90.8167 13.74645153309287
OSCAR 22 (UoSAT 5)
1 21575U 91050B   17070.64811434  .00000021  00000-0  21192-4 0  9993
2 21575  98.7621  84.7036 0006497 224.4472 135.6195 14.40786991347232
OSCAR 23 (KITSAT 1)
1 22077U 92052B   17069.74084125 -.00000074  00000-0 -51018-4 0  9992
2 22077  66.0850 172.7665 0003687 349.6687 164.9006 12.86517269154728
KITSAT B
1 22825U 93061C   17070.44446872 -.00000012  00000-0  13010-4 0  9995
2 22825  98.8002  34.8887 0007320 255.7046 104.3323 14.29988319223431
POSAT 1
1 22826U 93061D   17070.49793802  .00000003  00000-0  18688-4 0  9994
2 22826  98.7945  35.0362 0007889 244.9301 115.1062 14.30316286223612
ITAMSAT
1 22828U 93061F   17070.86716800 -.00000016  00000-0  11169-4 0  9992
2 22828  98.7852  34.2230 0009254 209.6443 150.4215 14.30625299192028
EYESAT A
1 22829U 93061G   17071.15993179 -.00000004  00000-0  15960-4 0  9992
2 22829  98.7889  37.1990 0009279 199.0027 227.2595 14.30960511224198
RADIO ROSTO
1 23439U 94085A   17069.91981766 -.00000060 +00000-0 -48882-3 0  9998
2 23439 064.8190 018.1065 0167916 262.6796 158.0349 11.27565859914339
JAS 2
1 24278U 96046B   17070.55604861 -.00000015  00000-0  23118-4 0  9994
2 24278  98.5779 326.7400 0349538 230.2110 126.7769 13.53074732 15675
TMSAT
1 25396U 98043C   17070.17090767  .00000001  00000-0  18813-4 0  9997
2 25396  98.5746  16.4553 0001527 243.1966 116.9057 14.24431118970213
TECHSAT 1B
1 25397U 98043D   17070.43080333 -.00000018  00000-0  11045-4 0  9994
2 25397  98.6007  14.8782 0000393 348.9750  11.1420 14.23616694969880
SEDSAT 1
1 25509U 98061B   17070.82407333  .00000234  00000-0  31423-4 0  9996
2 25509  31.4330 257.7534 0347156 230.2952 126.6577 14.30265823960192
PAN SAT
1 25520U 98064B   17070.86566725  .00000705  00000-0  17078-4 0  9990
2 25520  28.4567 287.1630 0005405   7.9976 352.0704 15.28233013 19387
ISS (ZARYA)
1 25544U 98067A   17071.55011574  .00004016  00000-0  67716-4 0  9996
2 25544  51.6424 160.0179 0006997 282.2055 277.5469 15.54195652 46725
OSCAR 36 (UOSAT 12)
1 25693U 99021A   17071.47395084 -.00000078  00000-0  87070-5 0  9995
2 25693  64.5555  63.7495 0025863 321.6628  38.2637 14.80719437965848
OPAL
1 26063U 00004C   17070.92711136 -.00000021  00000-0  13015-4 0  9994
2 26063 100.2241  56.4241 0035988 221.8979 137.9446 14.36655180897414
SAUDISAT 1A
1 26545U 00057A   17071.19882613 -.00000005  00000-0  17455-4 0  9990
2 26545  64.5556  27.8697 0049151 239.7825 119.8411 14.84714398889942
TIUNGSAT 1
1 26548U 00057D   17070.83973023  .00000081  00000-0  25212-4 0  9992
2 26548  64.5511 304.6140 0041722 238.3269 121.3768 14.88952272891606
SAUDISAT 1B
1 26549U 00057E   17070.22465632  .00000011  00000-0  19722-4 0  9990
2 26549  64.5528  64.5435 0054113 241.7436 117.8202 14.83327935889119
AMSAT OSCAR 40
1 26609U 00072B   17070.74515609 -.00000346  00000-0  00000+0 0  9997
2 26609   6.3138 241.8077 7952982  90.7524 350.1027  1.25588353 75127
PCSAT
1 26931U 01043C   17070.22171237 -.00000023  00000-0  23127-4 0  9994
2 26931  67.0531 343.9591 0007418 279.1711  80.8551 14.30450050806336
SAPPHIRE
1 26932U 01043D   17071.15552376 -.00000027  00000-0  21327-4 0  9999
2 26932  67.0579 343.7484 0007274 292.6481  67.3850 14.30241880806490
RUBIN 2
1 27605U 02058A   17070.44969363 -.00000050  00000-0  13267-4 0  9993
2 27605  64.5561  46.2867 0036809 142.5498 217.8180 14.74884851765062
SAUDISAT 1C
1 27607U 02058C   17070.45938111  .00000016  00000-0  22794-4 0  9999
2 27607  64.5550  64.1919 0035875 142.7181 217.6422 14.75292698764690
MOZHAYETS 4
1 27939U 03042A   17071.22243646  .00000105  00000-0  27309-4 0  9995
2 27939  97.9227 219.1768 0013339 168.3923 246.1931 14.66531337719106
AMSAT ECHO
1 28375U 04025K   17069.82152553  .00000001  00000-0  13699-4 0  9993
2 28375  98.3526   5.3592 0081724 219.5272 139.9940 14.41827626667649
HAMSAT
1 28650U 05017B   17070.89160454  .00000314  00000-0  39307-4 0  9990
2 28650  97.6408  48.5915 0025118  92.6049 267.8044 14.88584408641693
SSETI-EXPRESS
1 28894U 05043E   17070.07077088  .00000064  00000-0  21852-4 0  9997
2 28894  97.8667 231.7956 0018470 106.6970 253.6261 14.61424530606005
MOZ.5/SAFIR/RUBIN 5/SL-8
1 28898U 05043G   17070.19599856  .00000003  00000-0  96952-5 0  9993
2 28898  97.9104 224.2897 0020860 133.5894 226.7043 14.60167909605536
PEHUENSAT 1
1 29712U 07001D   17070.79297525  .00002411  00000-0  14455-3 0  9990
2 29712  97.5606  95.9569 0005722 241.8426 118.2227 15.11907761552623
DELFI C3
1 32789U 08021G   17070.46869242  .00000821  00000-0  62869-4 0  9992
2 32789  97.5706 130.7250 0014425  77.1087 283.1750 15.04494658482173
YUBELEINY
1 32953U 08025A   17071.13815693  .00000038  00000-0  20297-3 0  9993
2 32953  82.5016 300.0162 0019308 135.3487 224.9152 12.43075188399364
PRISM (HITOMI)
1 33493U 09002B   17071.21952858  .00001474  00000-0  13852-3 0  9997
2 33493  98.1832 309.4916 0016696  46.6512 313.6103 14.95510507441282
STARS (KUKAI)
1 33498U 09002G   17070.53742661  .00000269  00000-0  44503-4 0  9994
2 33498  98.3139 241.2699 0009957 306.6789  89.3005 14.78500694437478
KKS-1 (KISEKI)
1 33499U 09002H   17070.87744237  .00000114  00000-0  24958-4 0  9994
2 33499  98.3194 233.4739 0008458 331.0376  29.0361 14.75146064437017
SUMBANDILA
1 35870U 09049F   17071.07960226  .00006407  00000-0  10684-3 0  9992
2 35870  97.1092  88.7264 0004562  78.4828   5.2044 15.52313491418150
XIWANG-1 (HOPE-1)
1 36122U 09072B   17071.20537400 -.00000022  00000-0  53845-4 0  9993
2 36122 100.1116 101.8043 0008209  98.8746 261.3298 13.16338550347879
JUGNU
1 37839U 11058B   17070.72624266  .00000326  00000-0  32029-4 0  9996
2 37839  19.9620 321.4277 0019066 188.8765 203.1522 14.12574130279900
SRMSAT
1 37841U 11058D   17070.86484552  .00000315  00000-0  27936-4 0  9995
2 37841  19.9731   0.2662 0012003  92.6818 313.2032 14.10566664279529
RAX-2
1 37853U 11061D   17070.09202907  .00001161  00000-0  73772-4 0  9998
2 37853 101.7180 247.3281 0176984  18.0452 342.6934 15.01059729291921
AUBIESAT-1
1 37854U 11061E   17071.05063320  .00001184  00000-0  71725-4 0  9991
2 37854 101.7108 255.2358 0168686   2.3608 357.8361 15.03704738292331
M-CUBED/EXP-1 PRIME
1 37855U 11061F   17071.12643802  .00000773  00000-0  49034-4 0  9990
2 37855 101.7229 253.2183 0181944   8.0311 352.3744 15.02659223292215
CHIBIS-M
1 38051U 11062C   14288.65876392  .70201582  12497-4  27925-2 0  9995
2 38051 051.5964 324.1908 0006422 269.6897 186.8903 16.43533377153081
MASAT-1
1 38081U 12006E   15009.86954674  .36181825  49011-5  43735-3 0  9992
2 38081 069.4150 141.5751 0006093 101.2598 259.4750 16.49686879155248

======================================================================
Your job is being a professor and researcher: That's one hell of
a good excuse for some of the brain-damages of minix.
		-- Linus Torvalds to Andrew Tanenbaum
======================================================================
        __  __  __ __
|  /  \(__\|  \/  |_    BBS GF05OM TORTUGUITAS
|__\__/ __/|__/\__|__   TELNET LU9DCE.DYNU.COM PORT 6300
== power by linux ===   TELNET LU9DCE.AMPR.ORG PORT 7300

--------------  BBS ARGERTINO --- LUNET / LATNET / WW ----------------
==============  MUNDO PACKET = HTTP://PACKET.DYNU.COM ================
--------------  ##### NET/ROM - AXIP - RF - AMPR #### ----------------


Read previous mail | Read next mail


 17.09.2025 00:27:49lGo back Go up